Location: Barruelo
(41.2448°N, 3.8231°W)
Time: 08:47:50
(UTC+00:00)

Cosmos 2227 Rocket - Pass Details

Date: 17 March 2026
Orbit: 836 x 845 km, 71.0° (Epoch: 18 April)

Event Time Altitude Azimuth Distance (km) Brightness Sun altitude
Rises 23:00:42 0° 330° (NNW) 3,412 6.1 -45.7°
Reaches altitude 10° 23:03:15 10° 324° (NW) 2,473 5.2 -45.9°
Enters shadow 23:03:40 12° 322° (NW) 2,322 5.0 -45.9°
